sat.trackr.live / text

‹ back to catalog

STARLINK-36694

NORAD 67653 · 2026-022F

PAYLOAD ACTIVE UNKNOWN

§ Identity

Operator
Country
US
Launch date
2026-02-02
Launch site
AFWTR
Launch vehicle
Mass (kg)
RCS (m²)

Purposes: comms

External: N2YO · Heavens-Above · Gunter

§ Orbital elements

Epoch: 2026-05-25T01:30:26.472960Z

Period
93.91 min
Inclination
97.2842°
Eccentricity
0.0000908
Mean motion
15.33454722 rev/d
Perigee alt
464.9 km
Apogee alt
466.1 km
Semi-major
6,843.7 km
B*
6.1427e-4
RAAN
178.2684°
Arg perigee
93.1417°
Mean anomaly
266.9930°
Rev number
1,727

§ Raw data

STARLINK-366941 67653U 26022F   26145.06280640  .00019814  00000+0  61427-3 0  99982 67653  97.2842 178.2684 0000908  93.1417 266.9930 15.33454722 17277

JSON: /api/v1/satellites/67653 · /tle

For live sub-satellite position, see the globe view (requires WebGL).

§ Visibility from observer

Set your observer location to see the next 7 days of passes ≥ 10°. The values pass through the URL so the page stays shareable.

No JS? Fill the form by hand. The geolocation button needs JavaScript.